User: anonymous   Login
Location: Mauna Kea VIS
(19.7591°N, 155.4561°W)
Time: 04:55:33
(UTC-10:00)
Language:

Cosmos 1624 Rocket - Orbit

View from above orbital plane
View from above orbital plane
View from above satellite
View from above satellite

Ground track
Ground track

The orbit data is extracted from the following two-line orbital elements,

1 15483U 85006B   15143.49924507  .00000185  00000-0  72567-4 0  9999
2 15483 074.0452 301.9749 0018017 110.1956 304.7613 14.36025229588074
Epoch (UTC): 23 May 2015 11:58:54
Eccentricity: 0.0018017
inclination: 74.0452°
perigee height: 759 km
apogee height: 784 km
right ascension of ascending node: 301.9749°
argument of perigee: 110.1956°
revolutions per day: 14.36025229
mean anomaly at epoch: 304.7613°
orbit number at epoch: 58807

The dashed part of the orbit path shows where the satellite is in the earth's shadow,  

DLR